contact:dominique.lefevre@mio.osupytheas.fr, maurice.libes@osupytheas.fr, didier.mallarino@osupytheas.fr
Project:EMSO http://www.emso-fr.org/EMSO-France
Depth: 2436.0 m
Title:EMSO Ligure Ouest : Data MII capteur AQUADOPP
Date,Latitude,Longitude,X_East,Y_North,Z_Up,Amplitude_X,Amplitude_Y,Amplitude_Z,Batterie,SoundSpeed,Heading,Pitch,Roll,Pressure,TIS,Speed,Direction
, degrees North, degrees East, m.s-1, m.s-1,m.s-1, 1, 1, 1, Volt, m.s-1, degree, degree, degree, dbar, degree_C, m.s-1, degree
2020-11-24T00:04:03,42.805,6.029,0.053,-0.004,0.006,101.0,108.0,99.0,13.4,1505.2,326.0,-0.7,1.8,2470.543,13.3,0.053,94.3
2020-11-24T00:07:03,42.805,6.029,0.039,-0.012,0.021,101.0,109.0,99.0,13.4,1505.3,328.1,-0.7,1.8,2470.536,13.31,0.04,107.1
2020-11-24T00:10:03,42.805,6.029,0.05,-0.016,0.006,101.0,105.0,99.0,13.3,1505.3,326.3,-0.7,1.8,2470.488,13.31,0.052,107.7
2020-11-24T00:13:03,42.805,6.029,0.047,-0.011,-0.039,102.0,110.0,100.0,13.4,1505.3,326.6,-0.7,1.8,2470.544,13.31,0.048,103.2
2020-11-24T00:16:03,42.805,6.029,0.025,-0.019,-0.014,102.0,108.0,99.0,13.3,1505.3,323.6,-0.7,1.8,2470.499,13.32,0.031,127.2
2020-11-24T00:19:03,42.805,6.029,0.051,-0.007,0.016,101.0,112.0,99.0,13.4,1505.3,325.8,-0.7,1.8,2470.487,13.32,0.051,97.8
2020-11-24T00:22:03,42.805,6.029,0.048,-0.017,-0.019,102.0,108.0,99.0,13.3,1505.3,328.4,-0.7,1.8,2470.482,13.32,0.05,109.5
2020-11-24T00:25:03,42.805,6.029,0.044,-0.045,-0.014,101.0,108.0,99.0,13.4,1505.3,324.0,-0.7,1.9,2470.522,13.32,0.062,135.6
2020-11-24T00:28:03,42.805,6.029,0.055,-0.007,0.023,101.0,112.0,98.0,13.3,1505.3,325.7,-0.7,1.9,2470.521,13.32,0.055,97.3
2020-11-24T00:31:03,42.805,6.029,0.057,-0.013,-0.012,102.0,108.0,99.0,13.3,1505.3,325.6,-0.7,1.8,2470.499,13.32,0.058,102.8
2020-11-24T00:34:03,42.805,6.029,0.081,-0.028,0.001,102.0,108.0,98.0,13.3,1505.3,326.5,-0.7,1.8,2470.529,13.32,0.085,109.1
2020-11-24T00:37:03,42.805,6.029,0.049,-0.011,0.01,101.0,110.0,99.0,13.4,1505.3,325.0,-0.7,1.8,2470.472,13.32,0.05,102.7
2020-11-24T00:40:03,42.805,6.029,0.069,-0.025,0.02,100.0,107.0,100.0,13.4,1505.3,324.0,-0.7,1.8,2470.499,13.32,0.073,109.9
2020-11-24T00:43:03,42.805,6.029,0.067,-0.002,0.012,101.0,110.0,99.0,13.3,1505.3,324.5,-0.7,1.9,2470.539,13.32,0.067,91.7
2020-11-24T00:46:03,42.805,6.029,0.048,-0.03,-0.005,101.0,106.0,100.0,13.4,1505.3,326.8,-0.7,1.8,2470.485,13.32,0.056,122.0
2020-11-24T00:49:03,42.805,6.029,0.051,-0.032,-0.003,101.0,106.0,99.0,13.4,1505.3,327.6,-0.7,1.8,2470.507,13.32,0.06,122.1
2020-11-24T00:52:03,42.805,6.029,0.081,-0.006,-0.037,101.0,106.0,99.0,13.4,1505.3,323.7,-0.7,1.9,2470.511,13.32,0.081,94.2
2020-11-24T00:55:03,42.805,6.029,0.066,-0.009,0.014,100.0,106.0,99.0,13.4,1505.3,327.9,-0.7,1.8,2470.498,13.32,0.066,97.8
2020-11-24T00:58:03,42.805,6.029,0.067,-0.035,0.009,101.0,105.0,99.0,13.4,1505.3,323.8,-0.7,1.8,2470.494,13.32,0.075,117.6
2020-11-24T01:04:03,42.805,6.029,0.069,-0.035,-0.003,102.0,108.0,101.0,13.4,1505.2,326.3,-0.8,1.8,2470.527,13.3,0.077,116.9
2020-11-24T01:07:03,42.805,6.029,0.066,0.0,0.012,100.0,105.0,99.0,13.3,1505.3,327.8,-0.7,1.9,2470.525,13.31,0.065,90.0
2020-11-24T01:10:03,42.805,6.029,0.067,-0.022,-0.005,100.0,105.0,99.0,13.3,1505.3,326.1,-0.7,1.8,2470.546,13.31,0.07,108.2
2020-11-24T01:13:03,42.805,6.029,0.052,-0.026,0.006,100.0,104.0,100.0,13.4,1505.3,325.7,-0.7,1.8,2470.509,13.31,0.058,116.6
2020-11-24T01:16:03,42.805,6.029,0.081,-0.013,0.02,102.0,104.0,99.0,13.4,1505.3,323.3,-0.7,1.8,2470.511,13.31,0.082,99.1
2020-11-24T01:19:03,42.805,6.029,0.089,-0.022,0.034,99.0,102.0,100.0,13.4,1505.3,326.7,-0.7,1.8,2470.54,13.32,0.091,103.9
2020-11-24T01:22:03,42.805,6.029,0.053,-0.015,-0.023,100.0,105.0,99.0,13.3,1505.3,326.7,-0.7,1.9,2470.531,13.32,0.055,105.8
2020-11-24T01:25:03,42.805,6.029,0.06,-0.022,0.017,102.0,103.0,98.0,13.4,1505.3,324.0,-0.7,1.8,2470.528,13.32,0.063,110.1
2020-11-24T01:28:03,42.805,6.029,0.055,-0.006,0.03,100.0,106.0,100.0,13.4,1505.3,326.4,-0.7,1.8,2470.504,13.32,0.055,96.2
2020-11-24T01:31:03,42.805,6.029,0.056,-0.029,0.01,100.0,106.0,99.0,13.4,1505.3,324.9,-0.7,1.8,2470.513,13.32,0.063,117.4
2020-11-24T01:34:03,42.805,6.029,0.058,-0.016,0.015,102.0,108.0,98.0,13.4,1505.3,327.4,-0.7,1.8,2470.513,13.32,0.06,105.4
2020-11-24T01:37:03,42.805,6.029,0.04,0.002,-0.014,101.0,104.0,99.0,13.4,1505.3,323.6,-0.7,1.8,2470.507,13.32,0.04,87.1
2020-11-24T01:40:03,42.805,6.029,0.078,-0.031,0.025,99.0,104.0,99.0,13.3,1505.3,326.5,-0.7,1.8,2470.483,13.32,0.083,111.7
2020-11-24T01:43:03,42.805,6.029,0.056,-0.021,0.014,100.0,106.0,99.0,13.3,1505.3,326.3,-0.7,1.8,2470.521,13.32,0.059,110.6
2020-11-24T01:46:03,42.805,6.029,0.045,-0.006,0.018,101.0,105.0,100.0,13.4,1505.3,324.0,-0.7,1.8,2470.516,13.32,0.045,97.6
2020-11-24T01:49:03,42.805,6.029,0.056,-0.035,0.002,102.0,105.0,98.0,13.4,1505.3,324.7,-0.7,1.8,2470.515,13.32,0.066,122.0
2020-11-24T01:52:03,42.805,6.029,0.056,-0.037,-0.001,101.0,103.0,100.0,13.3,1505.3,324.5,-0.7,1.8,2470.522,13.32,0.067,123.5
2020-11-24T01:55:03,42.805,6.029,0.073,-0.009,0.012,101.0,102.0,99.0,13.4,1505.3,324.9,-0.7,1.8,2470.491,13.32,0.073,97.0
2020-11-24T01:58:03,42.805,6.029,0.065,-0.022,0.017,100.0,103.0,99.0,13.4,1505.3,324.6,-0.7,1.8,2470.512,13.32,0.068,108.7
2020-11-24T02:04:03,42.805,6.029,0.066,-0.039,-0.007,102.0,107.0,99.0,13.3,1505.2,326.4,-0.7,1.8,2470.558,13.3,0.076,120.6
2020-11-24T02:07:03,42.805,6.029,0.072,-0.03,-0.007,101.0,103.0,99.0,13.4,1505.3,323.1,-0.7,1.8,2470.501,13.31,0.077,112.6
2020-11-24T02:10:03,42.805,6.029,0.044,-0.039,-0.001,103.0,105.0,98.0,13.4,1505.3,325.1,-0.7,1.9,2470.545,13.31,0.058,131.6
2020-11-24T02:13:03,42.805,6.029,0.083,-0.04,0.006,100.0,101.0,101.0,13.3,1505.3,326.4,-0.7,1.8,2470.553,13.31,0.092,115.7
2020-11-24T02:16:03,42.805,6.029,0.066,-0.022,0.0,101.0,104.0,99.0,13.4,1505.3,327.9,-0.7,1.8,2470.534,13.31,0.069,108.4
2020-11-24T02:19:03,42.805,6.029,0.044,-0.022,0.003,102.0,103.0,100.0,13.4,1505.3,324.2,-0.7,1.8,2470.524,13.32,0.049,116.6
2020-11-24T02:22:03,42.805,6.029,0.029,-0.023,-0.006,100.0,106.0,99.0,13.4,1505.3,324.5,-0.7,1.9,2470.515,13.32,0.037,128.4
2020-11-24T02:25:03,42.805,6.029,0.065,-0.025,-0.009,100.0,104.0,100.0,13.4,1505.3,324.7,-0.7,1.8,2470.516,13.32,0.069,111.0
2020-11-24T02:28:03,42.805,6.029,0.073,-0.024,0.042,101.0,105.0,98.0,13.4,1505.3,323.3,-0.7,1.8,2470.495,13.32,0.076,108.2
2020-11-24T02:31:03,42.805,6.029,0.085,-0.039,0.032,100.0,103.0,99.0,13.4,1505.3,325.4,-0.7,1.8,2470.542,13.32,0.093,114.6
2020-11-24T02:34:03,42.805,6.029,0.056,-0.034,-0.034,101.0,102.0,99.0,13.3,1505.3,324.4,-0.7,1.8,2470.542,13.32,0.065,121.3
2020-11-24T02:37:03,42.805,6.029,0.083,-0.024,0.0,101.0,105.0,99.0,13.3,1505.3,328.5,-0.7,1.9,2470.529,13.32,0.086,106.1
2020-11-24T02:40:03,42.805,6.029,0.061,-0.04,0.004,102.0,104.0,99.0,13.4,1505.3,327.2,-0.7,1.8,2470.492,13.32,0.072,123.3
2020-11-24T02:43:03,42.805,6.029,0.067,-0.029,-0.006,100.0,102.0,100.0,13.4,1505.3,323.0,-0.7,1.8,2470.524,13.32,0.073,113.4
2020-11-24T02:46:03,42.805,6.029,0.085,-0.042,0.006,100.0,103.0,100.0,13.3,1505.3,325.9,-0.7,1.8,2470.508,13.32,0.094,116.3
2020-11-24T02:49:03,42.805,6.029,0.053,-0.023,0.023,101.0,102.0,99.0,13.4,1505.3,328.6,-0.7,1.8,2470.521,13.32,0.057,113.5
2020-11-24T02:55:03,42.805,6.029,0.058,-0.028,0.007,100.0,101.0,99.0,13.3,1505.2,326.4,-0.7,1.8,2470.528,13.3,0.064,115.8
2020-11-24T02:58:03,42.805,6.029,0.071,-0.03,0.011,100.0,103.0,98.0,13.4,1505.3,327.3,-0.7,1.8,2470.604,13.31,0.077,112.9
2020-11-24T03:04:03,42.805,6.029,0.062,-0.043,0.028,100.0,102.0,100.0,13.4,1505.2,323.1,-0.7,1.8,2470.578,13.29,0.075,124.7
2020-11-24T03:07:03,42.805,6.029,0.079,-0.025,0.009,100.0,102.0,100.0,13.4,1505.2,322.7,-0.7,1.8,2470.559,13.3,0.082,107.6
2020-11-24T03:10:03,42.805,6.029,0.07,-0.03,0.031,101.0,103.0,99.0,13.4,1505.3,324.2,-0.7,1.8,2470.528,13.31,0.076,113.2
2020-11-24T03:13:03,42.805,6.029,0.08,-0.035,-0.006,100.0,101.0,99.0,13.4,1505.3,324.5,-0.7,1.8,2470.525,13.31,0.087,113.6
2020-11-24T03:16:03,42.805,6.029,0.082,-0.045,0.003,101.0,102.0,99.0,13.3,1505.3,326.8,-0.7,1.8,2470.537,13.31,0.093,118.8
2020-11-24T03:19:03,42.805,6.029,0.068,-0.026,0.038,102.0,101.0,99.0,13.4,1505.3,323.8,-0.7,1.8,2470.517,13.31,0.072,110.9
2020-11-24T03:22:03,42.805,6.029,0.025,-0.032,0.001,101.0,103.0,100.0,13.4,1505.3,326.1,-0.7,1.8,2470.526,13.32,0.04,142.0
2020-11-24T03:25:03,42.805,6.029,0.058,-0.036,-0.008,101.0,100.0,99.0,13.4,1505.3,326.7,-0.7,1.8,2470.538,13.32,0.068,121.8
2020-11-24T03:28:03,42.805,6.029,0.064,-0.033,0.023,101.0,102.0,100.0,13.4,1505.3,323.8,-0.7,1.8,2470.503,13.32,0.072,117.3
2020-11-24T03:31:03,42.805,6.029,0.044,-0.018,0.011,101.0,102.0,99.0,13.4,1505.3,327.5,-0.7,1.8,2470.503,13.32,0.047,112.2
2020-11-24T03:34:03,42.805,6.029,0.062,-0.043,0.008,101.0,103.0,98.0,13.4,1505.3,327.6,-0.7,1.8,2470.512,13.32,0.075,124.7
2020-11-24T03:37:03,42.805,6.029,0.066,-0.021,0.022,101.0,103.0,99.0,13.3,1505.3,324.0,-0.7,1.8,2470.494,13.32,0.069,107.6
2020-11-24T03:40:03,42.805,6.029,0.078,-0.037,-0.014,101.0,102.0,99.0,13.4,1505.3,324.7,-0.7,1.8,2470.494,13.32,0.086,115.4
2020-11-24T03:43:03,42.805,6.029,0.075,-0.037,-0.004,101.0,103.0,99.0,13.3,1505.3,325.4,-0.7,1.8,2470.532,13.32,0.083,116.3
2020-11-24T03:46:03,42.805,6.029,0.057,-0.038,0.018,101.0,102.0,100.0,13.4,1505.3,326.4,-0.7,1.8,2470.5,13.32,0.068,123.7
2020-11-24T03:49:03,42.805,6.029,0.051,-0.027,-0.014,100.0,103.0,100.0,13.3,1505.3,326.5,-0.7,1.8,2470.499,13.32,0.057,117.9
2020-11-24T03:52:03,42.805,6.029,0.023,-0.016,0.018,100.0,104.0,98.0,13.3,1505.3,325.5,-0.7,1.8,2470.556,13.32,0.028,124.8
2020-11-24T03:55:03,42.805,6.029,0.066,-0.041,0.01,101.0,104.0,100.0,13.4,1505.3,327.5,-0.7,1.8,2470.486,13.32,0.077,121.8
2020-11-24T03:58:03,42.805,6.029,0.043,-0.039,-0.016,101.0,103.0,99.0,13.4,1505.3,326.8,-0.7,1.9,2470.523,13.32,0.058,132.2
2020-11-24T04:04:03,42.805,6.029,0.054,-0.034,0.012,101.0,104.0,100.0,13.3,1505.2,326.5,-0.7,1.8,2470.579,13.3,0.063,122.2
2020-11-24T04:07:03,42.805,6.029,0.069,-0.039,0.038,100.0,104.0,99.0,13.3,1505.3,326.3,-0.7,1.8,2470.541,13.31,0.079,119.5
2020-11-24T04:10:03,42.805,6.029,0.046,-0.047,0.017,100.0,104.0,99.0,13.3,1505.3,327.1,-0.7,1.8,2470.549,13.31,0.065,135.6
2020-11-24T04:13:03,42.805,6.029,0.064,-0.052,0.003,101.0,104.0,100.0,13.4,1505.3,325.6,-0.7,1.8,2470.513,13.31,0.082,129.1
2020-11-24T04:16:03,42.805,6.029,0.078,-0.044,0.004,102.0,102.0,100.0,13.3,1505.3,328.0,-0.7,1.8,2470.497,13.31,0.089,119.4
2020-11-24T04:19:03,42.805,6.029,0.055,-0.03,0.006,102.0,103.0,101.0,13.4,1505.3,324.5,-0.7,1.8,2470.55,13.32,0.062,118.6
2020-11-24T04:25:03,42.805,6.029,0.088,-0.03,0.026,101.0,103.0,100.0,13.4,1505.2,325.9,-0.7,1.8,2470.578,13.3,0.092,108.8
2020-11-24T04:28:03,42.805,6.029,0.076,-0.044,0.015,101.0,103.0,100.0,13.4,1505.3,325.7,-0.7,1.8,2470.521,13.31,0.087,120.1
2020-11-24T04:31:03,42.805,6.029,0.078,-0.019,0.02,101.0,106.0,100.0,13.3,1505.3,323.5,-0.7,1.8,2470.567,13.31,0.08,103.7
2020-11-24T04:34:03,42.805,6.029,0.07,-0.048,-0.021,101.0,103.0,100.0,13.4,1505.3,326.4,-0.7,1.8,2470.558,13.31,0.084,124.4
2020-11-24T04:37:03,42.805,6.029,0.053,-0.023,0.0,103.0,103.0,100.0,13.4,1505.3,326.4,-0.7,1.9,2470.56,13.31,0.057,113.5
2020-11-24T04:40:03,42.805,6.029,0.05,-0.027,0.003,102.0,105.0,101.0,13.4,1505.3,328.0,-0.7,1.9,2470.515,13.32,0.056,118.4
2020-11-24T04:43:03,42.805,6.029,0.058,-0.037,0.004,103.0,104.0,100.0,13.3,1505.3,326.0,-0.7,1.8,2470.508,13.32,0.068,122.5
2020-11-24T04:46:03,42.805,6.029,0.058,-0.039,0.012,102.0,104.0,100.0,13.4,1505.3,327.3,-0.7,1.8,2470.535,13.32,0.069,123.9
2020-11-24T04:49:03,42.805,6.029,0.069,-0.057,-0.012,103.0,105.0,100.0,13.4,1505.3,326.8,-0.7,1.8,2470.493,13.32,0.089,129.6
2020-11-24T04:52:03,42.805,6.029,0.064,-0.058,0.012,102.0,103.0,100.0,13.4,1505.3,323.5,-0.7,1.8,2470.515,13.32,0.086,132.2
2020-11-24T04:55:03,42.805,6.029,0.046,-0.025,0.002,103.0,103.0,100.0,13.4,1505.3,324.8,-0.7,1.8,2470.564,13.32,0.052,118.5
2020-11-24T04:58:03,42.805,6.029,0.044,-0.031,-0.008,102.0,105.0,99.0,13.4,1505.3,323.7,-0.7,1.8,2470.508,13.32,0.053,125.2
2020-11-24T05:04:03,42.805,6.029,0.064,-0.033,0.006,102.0,104.0,100.0,13.3,1505.2,325.4,-0.8,1.8,2470.529,13.3,0.072,117.3
2020-11-24T05:07:03,42.805,6.029,0.09,-0.052,0.013,101.0,103.0,101.0,13.4,1505.3,326.6,-0.7,1.9,2470.563,13.31,0.103,120.0
2020-11-24T05:10:03,42.805,6.029,0.042,-0.039,-0.017,102.0,104.0,100.0,13.4,1505.3,324.5,-0.7,1.9,2470.535,13.31,0.057,132.9
2020-11-24T05:13:03,42.805,6.029,0.05,-0.007,0.009,102.0,104.0,99.0,13.4,1505.3,324.0,-0.7,1.8,2470.512,13.31,0.05,98.0
2020-11-24T05:16:03,42.805,6.029,0.087,-0.025,0.026,102.0,104.0,101.0,13.4,1505.3,324.1,-0.7,1.8,2470.496,13.32,0.09,106.0
2020-11-24T05:19:03,42.805,6.029,0.064,-0.04,0.0,102.0,103.0,101.0,13.3,1505.3,323.6,-0.7,1.8,2470.505,13.32,0.075,122.0
2020-11-24T05:22:03,42.805,6.029,0.071,-0.032,0.022,103.0,104.0,101.0,13.4,1505.3,325.9,-0.7,1.8,2470.543,13.32,0.077,114.3
2020-11-24T05:25:03,42.805,6.029,0.072,-0.032,-0.011,104.0,105.0,100.0,13.3,1505.3,324.8,-0.7,1.8,2470.522,13.32,0.078,114.0
2020-11-24T05:28:03,42.805,6.029,0.046,-0.02,-0.004,104.0,107.0,101.0,13.4,1505.3,324.9,-0.7,1.8,2470.492,13.32,0.05,113.5
2020-11-24T05:31:03,42.805,6.029,0.075,-0.058,0.018,104.0,104.0,101.0,13.3,1505.3,327.1,-0.7,1.9,2470.512,13.32,0.094,127.7
2020-11-24T05:34:03,42.805,6.029,0.048,-0.018,0.017,102.0,105.0,100.0,13.4,1505.3,323.0,-0.7,1.8,2470.542,13.32,0.051,110.6
2020-11-24T05:37:03,42.805,6.029,0.053,-0.046,0.002,103.0,104.0,101.0,13.4,1505.3,324.3,-0.8,1.8,2470.518,13.32,0.07,131.0
2020-11-24T05:40:03,42.805,6.029,0.051,-0.041,-0.016,103.0,105.0,101.0,13.4,1505.3,323.8,-0.7,1.8,2470.496,13.32,0.065,128.8
2020-11-24T05:43:03,42.805,6.029,0.066,-0.042,0.011,103.0,105.0,100.0,13.4,1505.3,327.9,-0.7,1.8,2470.476,13.32,0.078,122.5
2020-11-24T05:46:03,42.805,6.029,0.059,-0.022,0.016,103.0,105.0,100.0,13.4,1505.3,324.7,-0.7,1.9,2470.486,13.32,0.062,110.4
2020-11-24T05:49:03,42.805,6.029,0.077,-0.05,0.009,103.0,105.0,101.0,13.3,1505.3,326.7,-0.7,1.8,2470.5,13.32,0.091,123.0
2020-11-24T05:52:03,42.805,6.029,0.06,-0.016,0.0,103.0,105.0,101.0,13.3,1505.3,325.0,-0.7,1.8,2470.474,13.32,0.062,104.9
2020-11-24T05:55:03,42.805,6.029,0.077,-0.036,-0.004,104.0,105.0,100.0,13.4,1505.3,327.9,-0.7,1.8,2470.48,13.32,0.084,115.1
2020-11-24T05:58:03,42.805,6.029,0.063,-0.036,-0.012,103.0,105.0,101.0,13.4,1505.3,324.4,-0.7,1.8,2470.491,13.32,0.072,119.7
2020-11-24T06:04:03,42.805,6.029,0.053,-0.041,-0.013,103.0,104.0,101.0,13.3,1505.2,325.2,-0.8,1.8,2470.496,13.3,0.067,127.7
2020-11-24T06:07:03,42.805,6.029,0.037,-0.025,-0.005,103.0,105.0,101.0,13.3,1505.3,324.7,-0.7,1.8,2470.523,13.31,0.044,124.0
2020-11-24T06:10:03,42.805,6.029,0.068,-0.044,0.018,102.0,104.0,100.0,13.3,1505.3,325.4,-0.7,1.8,2470.569,13.31,0.08,122.9
2020-11-24T06:13:03,42.805,6.029,0.076,-0.045,-0.012,102.0,104.0,100.0,13.4,1505.3,325.6,-0.7,1.8,2470.475,13.31,0.088,120.6
2020-11-24T06:16:03,42.805,6.029,0.054,-0.047,-0.001,104.0,104.0,100.0,13.4,1505.3,326.0,-0.7,1.8,2470.537,13.32,0.071,131.0
2020-11-24T06:19:03,42.805,6.029,0.062,-0.013,-0.03,104.0,104.0,100.0,13.3,1505.3,327.7,-0.7,1.9,2470.467,13.32,0.063,101.8
2020-11-24T06:22:03,42.805,6.029,0.054,-0.021,-0.01,103.0,106.0,101.0,13.4,1505.3,326.8,-0.7,1.8,2470.533,13.32,0.057,111.2
2020-11-24T06:25:03,42.805,6.029,0.018,-0.025,-0.037,103.0,106.0,101.0,13.4,1505.3,325.1,-0.7,1.8,2470.515,13.32,0.03,144.2
2020-11-24T06:28:03,42.805,6.029,0.05,-0.034,-0.006,101.0,106.0,101.0,13.4,1505.3,326.2,-0.7,1.8,2470.498,13.32,0.06,124.2
2020-11-24T06:31:03,42.805,6.029,0.046,-0.012,-0.011,103.0,105.0,100.0,13.4,1505.3,326.3,-0.7,1.8,2470.53,13.32,0.047,104.6
2020-11-24T06:34:03,42.805,6.029,0.051,-0.018,0.01,103.0,106.0,101.0,13.4,1505.3,328.0,-0.7,1.8,2470.47,13.32,0.054,109.4
2020-11-24T06:37:03,42.805,6.029,0.065,-0.029,-0.001,103.0,105.0,101.0,13.4,1505.3,327.6,-0.7,1.8,2470.48,13.32,0.071,114.0
2020-11-24T06:40:03,42.805,6.029,0.021,-0.031,-0.039,104.0,105.0,101.0,13.4,1505.3,327.3,-0.7,1.8,2470.453,13.32,0.037,145.9
2020-11-24T06:43:03,42.805,6.029,0.067,-0.035,0.015,103.0,104.0,101.0,13.3,1505.3,323.3,-0.7,1.8,2470.496,13.32,0.075,117.6
2020-11-24T06:46:03,42.805,6.029,0.051,-0.047,0.002,104.0,105.0,101.0,13.4,1505.3,326.2,-0.7,1.8,2470.458,13.32,0.069,132.7
2020-11-24T06:49:03,42.805,6.029,0.027,-0.043,0.01,104.0,106.0,102.0,13.3,1505.3,325.9,-0.7,1.8,2470.46,13.32,0.05,147.9
2020-11-24T06:52:03,42.805,6.029,0.067,-0.026,0.015,104.0,107.0,100.0,13.4,1505.3,325.8,-0.7,1.8,2470.488,13.32,0.071,111.2
2020-11-24T06:55:03,42.805,6.029,0.044,-0.037,-0.006,103.0,106.0,101.0,13.4,1505.3,323.0,-0.7,1.8,2470.477,13.32,0.057,130.1
2020-11-24T06:58:03,42.805,6.029,0.056,-0.021,-0.01,104.0,107.0,100.0,13.3,1505.3,324.3,-0.7,1.8,2470.505,13.32,0.059,110.6
2020-11-24T07:04:03,42.805,6.029,0.061,-0.045,0.001,104.0,105.0,101.0,13.4,1505.2,326.3,-0.7,1.8,2470.54,13.3,0.075,126.4
2020-11-24T07:07:03,42.805,6.029,0.069,-0.019,0.032,105.0,107.0,100.0,13.4,1505.3,327.4,-0.7,1.8,2470.505,13.31,0.071,105.4
2020-11-24T07:10:03,42.805,6.029,0.033,-0.016,-0.009,105.0,106.0,101.0,13.4,1505.3,324.4,-0.7,1.9,2470.456,13.31,0.036,115.9
2020-11-24T07:13:03,42.805,6.029,0.037,-0.022,-0.002,103.0,105.0,101.0,13.4,1505.3,326.1,-0.7,1.8,2470.532,13.31,0.043,120.7
2020-11-24T07:16:03,42.805,6.029,0.054,-0.042,0.036,104.0,106.0,101.0,13.4,1505.3,327.0,-0.7,1.9,2470.508,13.32,0.068,127.9
2020-11-24T07:19:03,42.805,6.029,0.052,-0.041,0.017,103.0,106.0,100.0,13.4,1505.3,323.9,-0.7,1.8,2470.477,13.32,0.066,128.3
2020-11-24T07:22:03,42.805,6.029,0.075,-0.032,-0.007,104.0,106.0,101.0,13.4,1505.3,326.9,-0.7,1.8,2470.508,13.32,0.081,113.1
2020-11-24T07:25:03,42.805,6.029,0.037,-0.03,-0.028,104.0,107.0,100.0,13.3,1505.3,322.6,-0.7,1.8,2470.476,13.32,0.047,129.0
2020-11-24T07:28:03,42.805,6.029,0.068,-0.018,-0.03,103.0,105.0,102.0,13.3,1505.3,326.4,-0.7,1.8,2470.498,13.32,0.07,104.8
2020-11-24T07:31:03,42.805,6.029,0.065,-0.024,0.018,104.0,106.0,102.0,13.3,1505.3,325.1,-0.7,1.9,2470.451,13.32,0.069,110.3
2020-11-24T07:34:03,42.805,6.029,0.049,-0.022,0.009,103.0,105.0,100.0,13.4,1505.3,326.0,-0.7,1.8,2470.45,13.32,0.053,114.2
2020-11-24T07:37:03,42.805,6.029,0.035,-0.011,-0.029,104.0,106.0,100.0,13.4,1505.3,326.2,-0.7,1.8,2470.528,13.32,0.036,107.4
2020-11-24T07:40:03,42.805,6.029,0.035,-0.026,-0.03,103.0,106.0,101.0,13.3,1505.3,326.1,-0.7,1.8,2470.448,13.32,0.043,126.6
2020-11-24T07:43:03,42.805,6.029,0.054,-0.023,-0.028,104.0,104.0,101.0,13.3,1505.3,325.5,-0.7,1.8,2470.508,13.32,0.058,113.1
2020-11-24T07:46:03,42.805,6.029,0.083,-0.021,0.021,103.0,105.0,101.0,13.4,1505.3,324.5,-0.7,1.8,2470.471,13.32,0.085,104.2
2020-11-24T07:49:03,42.805,6.029,0.057,-0.027,-0.007,102.0,105.0,101.0,13.4,1505.3,324.7,-0.7,1.8,2470.515,13.32,0.063,115.3
2020-11-24T07:52:03,42.805,6.029,0.052,-0.039,-0.017,104.0,104.0,101.0,13.4,1505.3,327.5,-0.7,1.8,2470.457,13.32,0.064,126.9
2020-11-24T07:55:03,42.805,6.029,0.028,-0.023,0.008,105.0,105.0,101.0,13.3,1505.3,324.5,-0.7,1.8,2470.441,13.32,0.036,129.4
2020-11-24T07:58:03,42.805,6.029,0.067,-0.024,-0.012,104.0,106.0,100.0,13.4,1505.3,324.0,-0.7,1.8,2470.456,13.32,0.071,109.7
2020-11-24T08:04:03,42.805,6.029,0.02,-0.027,-0.024,104.0,108.0,101.0,13.3,1505.2,326.1,-0.7,1.8,2470.529,13.3,0.033,143.5
2020-11-24T08:07:03,42.805,6.029,0.035,-0.022,0.025,104.0,109.0,101.0,13.4,1505.3,324.7,-0.8,1.9,2470.498,13.31,0.041,122.2
2020-11-24T08:10:03,42.805,6.029,0.037,-0.03,0.024,104.0,107.0,101.0,13.3,1505.3,326.5,-0.7,1.8,2470.461,13.31,0.047,129.0
2020-11-24T08:13:03,42.805,6.029,0.058,-0.022,-0.021,103.0,104.0,101.0,13.4,1505.3,326.2,-0.7,1.8,2470.481,13.31,0.062,110.8
2020-11-24T08:16:03,42.805,6.029,0.026,-0.003,0.007,102.0,107.0,103.0,13.4,1505.3,326.0,-0.7,1.8,2470.498,13.32,0.026,96.6
2020-11-24T08:19:03,42.805,6.029,0.027,-0.007,-0.015,103.0,107.0,102.0,13.4,1505.3,325.4,-0.7,1.8,2470.474,13.32,0.027,104.5
2020-11-24T08:22:03,42.805,6.029,0.045,-0.023,-0.018,105.0,106.0,101.0,13.4,1505.3,325.2,-0.7,1.8,2470.478,13.32,0.05,117.1
2020-11-24T08:25:03,42.805,6.029,0.017,-0.02,-0.025,104.0,107.0,101.0,13.3,1505.3,326.3,-0.7,1.8,2470.486,13.32,0.026,139.6
2020-11-24T08:28:03,42.805,6.029,0.042,-0.009,-0.019,104.0,107.0,100.0,13.3,1505.3,326.7,-0.7,1.8,2470.484,13.32,0.042,102.1
2020-11-24T08:31:03,42.805,6.029,0.027,0.001,0.0,104.0,107.0,101.0,13.4,1505.3,324.8,-0.7,1.9,2470.469,13.32,0.027,87.9
2020-11-24T08:34:03,42.805,6.029,0.042,-0.015,0.009,105.0,109.0,102.0,13.3,1505.3,327.0,-0.6,1.8,2470.5,13.32,0.044,109.6
2020-11-24T08:37:03,42.805,6.029,0.049,-0.005,0.02,103.0,107.0,102.0,13.4,1505.3,323.0,-0.7,1.8,2470.505,13.32,0.049,95.8
2020-11-24T08:40:03,42.805,6.029,0.056,-0.008,0.006,105.0,108.0,102.0,13.4,1505.3,327.7,-0.7,1.9,2470.458,13.32,0.056,98.1
2020-11-24T08:43:03,42.805,6.029,0.036,-0.019,-0.007,104.0,107.0,102.0,13.3,1505.3,322.9,-0.7,1.8,2470.462,13.32,0.04,117.8
2020-11-24T08:46:03,42.805,6.029,0.057,0.011,0.001,104.0,109.0,100.0,13.4,1505.3,327.2,-0.7,1.8,2470.451,13.32,0.058,79.1
2020-11-24T08:49:03,42.805,6.029,0.052,-0.006,-0.016,104.0,108.0,101.0,13.4,1505.3,324.5,-0.7,1.8,2470.486,13.32,0.052,96.6
2020-11-24T08:52:03,42.805,6.029,0.021,-0.013,-0.008,104.0,108.0,102.0,13.4,1505.3,322.6,-0.7,1.8,2470.423,13.32,0.024,121.8
2020-11-24T08:55:03,42.805,6.029,0.017,-0.027,-0.014,104.0,107.0,102.0,13.4,1505.3,327.0,-0.7,1.9,2470.467,13.32,0.031,147.8
2020-11-24T08:58:03,42.805,6.029,0.066,-0.018,0.04,104.0,107.0,100.0,13.4,1505.3,325.7,-0.7,1.9,2470.457,13.32,0.068,105.3
2020-11-24T09:04:03,42.805,6.029,0.028,-0.002,0.01,104.0,106.0,101.0,13.4,1505.2,323.3,-0.7,1.8,2470.491,13.3,0.028,94.1
2020-11-24T09:07:03,42.805,6.029,0.043,-0.011,-0.004,104.0,107.0,101.0,13.4,1505.3,326.5,-0.7,1.8,2470.52,13.31,0.044,104.3
2020-11-24T09:10:03,42.805,6.029,0.07,-0.036,-0.037,103.0,108.0,103.0,13.4,1505.3,324.5,-0.7,1.8,2470.49,13.31,0.078,117.2
2020-11-24T09:13:03,42.805,6.029,0.052,-0.023,0.004,104.0,108.0,100.0,13.3,1505.3,325.0,-0.7,1.9,2470.468,13.31,0.056,113.9
2020-11-24T09:16:03,42.805,6.029,0.035,-0.027,-0.014,104.0,109.0,101.0,13.3,1505.3,325.2,-0.7,1.8,2470.511,13.32,0.044,127.7
2020-11-24T09:19:03,42.805,6.029,0.047,-0.001,-0.013,104.0,109.0,100.0,13.3,1505.3,328.0,-0.7,1.8,2470.506,13.32,0.047,91.2
2020-11-24T09:22:03,42.805,6.029,0.051,-0.015,-0.002,103.0,108.0,102.0,13.4,1505.3,324.0,-0.7,1.8,2470.471,13.32,0.053,106.4
2020-11-24T09:25:03,42.805,6.029,0.056,-0.013,0.011,106.0,106.0,102.0,13.3,1505.3,326.2,-0.7,1.8,2470.486,13.32,0.057,103.1
2020-11-24T09:28:03,42.805,6.029,0.048,0.005,-0.02,104.0,108.0,101.0,13.4,1505.3,324.3,-0.7,1.8,2470.48,13.32,0.048,84.1
2020-11-24T09:31:03,42.805,6.029,0.031,-0.021,-0.011,103.0,111.0,100.0,13.4,1505.3,324.5,-0.7,1.8,2470.531,13.32,0.037,124.1
2020-11-24T09:34:03,42.805,6.029,0.038,0.008,-0.014,104.0,111.0,101.0,13.4,1505.3,326.2,-0.7,1.8,2470.466,13.32,0.038,78.1
2020-11-24T09:37:03,42.805,6.029,0.04,0.004,-0.023,103.0,112.0,101.0,13.3,1505.3,325.0,-0.7,1.8,2470.469,13.32,0.04,84.3
2020-11-24T09:40:03,42.805,6.029,0.032,-0.008,0.0,104.0,111.0,101.0,13.4,1505.3,326.0,-0.7,1.8,2470.475,13.32,0.032,104.0
2020-11-24T09:43:03,42.805,6.029,0.031,0.003,0.01,104.0,112.0,101.0,13.4,1505.3,324.7,-0.7,1.8,2470.429,13.32,0.031,84.5
2020-11-24T09:46:03,42.805,6.029,0.023,-0.003,-0.008,104.0,112.0,101.0,13.4,1505.3,322.6,-0.7,1.8,2470.461,13.32,0.023,97.4
2020-11-24T09:49:03,42.805,6.029,0.069,-0.026,-0.001,105.0,114.0,101.0,13.4,1505.3,326.3,-0.7,1.8,2470.444,13.32,0.073,110.6
2020-11-24T09:52:03,42.805,6.029,0.045,-0.009,-0.034,103.0,111.0,102.0,13.4,1505.3,327.6,-0.7,1.8,2470.481,13.32,0.045,101.3
2020-11-24T09:55:03,42.805,6.029,0.045,-0.012,-0.013,104.0,111.0,103.0,13.4,1505.3,324.6,-0.7,1.8,2470.511,13.32,0.046,104.9
2020-11-24T09:58:03,42.805,6.029,0.017,-0.01,-0.032,104.0,113.0,101.0,13.3,1505.3,322.6,-0.7,1.8,2470.458,13.32,0.019,120.5
2020-11-24T10:04:03,42.805,6.029,0.057,-0.023,-0.006,104.0,114.0,101.0,13.4,1505.2,323.9,-0.7,1.8,2470.494,13.3,0.061,112.0
2020-11-24T10:07:03,42.805,6.029,0.026,0.001,-0.04,105.0,113.0,100.0,13.3,1505.3,323.6,-0.7,1.8,2470.494,13.31,0.026,87.8